MST,Max TemperatureF,Mean TemperatureF,Min TemperatureF,Max Dew PointF,MeanDew PointF,Min DewpointF,Max Humidity, Mean Humidity, Min Humidity, Max Sea Level PressureIn, Mean Sea Level PressureIn, Min Sea Level PressureIn, Max VisibilityMiles, Mean VisibilityMiles, Min VisibilityMiles, Max Wind SpeedMPH, Mean Wind SpeedMPH, Max Gust SpeedMPH,PrecipitationIn, CloudCover, Events, WindDirDegrees
2013-1-1,14,3,-8,10,0,-11,88,80,71,30.70,30.52,30.28,10,6,1,7,2,37,T,6,Snow,306
2013-1-2,8,-1,-11,1,-9,-15,87,80,72,30.80,30.59,30.42,10,6,0,9,4,10,T,5,Fog-Snow,1
2013-1-3,10,0,-11,3,-6,-15,87,79,71,30.78,30.72,30.66,10,10,8,13,5,15,0.00,0,,355
2013-1-4,13,0,-13,3,-7,-13,90,78,66,30.71,30.62,30.35,10,9,1,10,3,12,0.00,0,,360
2013-1-5,13,1,-11,4,-5,-17,87,77,67,30.76,30.64,30.36,10,10,6,10,6,13,0.00,0,,3
2013-1-6,26,13,0,15,6,-4,87,75,62,30.48,30.35,30.23,10,10,6,18,4,21,0.00,3,,353
2013-1-7,20,8,-4,17,5,-8,100,90,79,30.40,30.23,30.07,6,2,0,10,3,12,T,6,Fog-Snow,327
2013-1-8,28,22,16,25,19,12,92,85,77,30.45,30.28,30.08,8,2,0,10,4,12,0.02,8,Snow,354
2013-1-9,33,27,20,28,23,19,92,85,78,30.44,30.19,29.83,10,6,4,15,4,20,0.00,6,Fog,4
2013-1-10,39,30,20,32,24,15,96,86,76,29.79,29.63,29.55,10,4,0,36,17,44,0.11,8,Fog-Rain-Snow,199
2013-1-11,20,13,5,16,7,-1,84,74,64,30.18,29.80,29.55,10,5,1,23,14,29,T,8,Snow,345
2013-1-12,7,-4,-14,2,-8,-20,92,79,72,30.40,30.19,29.99,10,6,0,7,1,,0.00,5,Fog-Snow,356
2013-1-13,-1,-11,-21,-8,-17,-26,83,76,69,30.65,30.38,30.09,10,8,2,10,3,13,0.00,2,,1
2013-1-14,3,-8,-19,-2,-10,-24,87,79,71,30.71,30.45,30.22,10,6,1,12,5,13,0.01,8,Fog-Snow,360
2013-1-15,10,6,1,3,-1,-6,80,77,73,30.87,30.68,30.33,9,4,2,10,5,10,T,8,Snow,1
2013-1-16,15,6,-4,9,4,-4,88,81,73,30.90,30.81,30.61,10,5,2,9,6,10,T,7,Fog-Snow,9
2013-1-17,15,4,-8,5,-4,-11,95,81,67,30.92,30.80,30.50,10,9,6,10,4,10,0.00,1,,4
2013-1-18,12,1,-10,4,-8,-15,87,77,66,30.82,30.69,30.44,10,9,2,12,5,13,0.00,2,,16
2013-1-19,17,3,-12,6,-6,-15,87,77,67,30.87,30.78,30.73,10,10,9,10,4,12,0.00,0,,19
2013-1-20,14,5,-4,6,-3,-8,87,79,70,30.80,30.72,30.45,10,10,2,8,4,9,0.00,0,,19
2013-1-21,16,4,-8,7,-4,-10,86,77,67,30.76,30.69,30.61,10,10,10,9,4,10,0.00,0,Fog,16
2013-1-22,18,5,-9,7,-4,-13,87,77,67,30.71,30.61,30.36,10,10,8,12,6,13,0.00,0,,23
2013-1-23,27,15,3,16,8,-1,86,77,67,30.54,30.44,30.33,10,10,10,10,4,12,0.00,2,,11
2013-1-24,36,24,11,31,25,7,89,81,73,30.35,30.30,30.18,10,8,3,20,7,24,T,7,Snow,202
2013-1-25,35,32,29,31,29,27,92,87,82,30.34,30.25,30.07,7,3,1,12,3,14,0.02,8,Snow,8
2013-1-26,42,38,34,34,32,30,92,89,85,30.11,29.96,29.80,10,5,2,12,3,14,0.02,8,Rain,220
2013-1-27,35,30,24,34,28,21,92,87,81,29.93,29.82,29.75,10,3,0,22,15,26,0.12,8,Fog-Rain-Snow,213
2013-1-28,25,22,18,21,19,14,92,85,77,30.03,29.91,29.81,10,5,0,21,13,25,0.01,7,Fog-Snow,215
2013-1-29,25,19,13,21,16,11,91,84,77,30.23,30.00,29.78,10,10,3,17,5,22,T,7,Snow,294
2013-1-30,36,28,20,30,25,17,88,85,81,30.21,30.15,30.03,10,10,10,25,16,29,0.00,7,,214
2013-1-31,36,32,28,31,28,25,89,82,75,30.35,30.26,30.18,10,10,8,24,14,28,T,7,,209